Location: Newark
(33.6439°N, 114.9881°W)
Time: 12:18:07
(UTC+00:00)

A-11 Canister half - Pass Details

Date: 28 August 2019
Orbit: 1527 x 1682 km, 47.3° (Epoch: 15 September)

Event Time Altitude Azimuth Distance (km) Brightness Sun altitude
Rises 14:16:47 0° 168° (SSE) 4,732 11.7 12.7°
Reaches altitude 10° 14:22:55 10° 138° (SE) 3,793 11.7 14.0°
Maximum altitude 14:25:46 12° 121° (ESE) 3,686 12.2 14.6°
Drops below altitude 10° 14:28:38 10° 103° (ESE) 3,836 13.1 15.2°
Sets 14:34:52 0° 74° (ENE) 4,867 13.2 16.5°
